Time,TemperatureF,DewpointF,PressureIn,WindDirection,WindDirectionDegrees,WindSpeedMPH,WindSpeedGustMPH,Humidity,HourlyPrecipIn,Conditions,Clouds,dailyrainin,SoftwareType,DateUTC
2013-06-06 00:00:00,38.5,28.1,29.74,SSW,193,1.0,3.0,66,0.00,,,0.00,Wunderground v.1.15,2013-06-06 08:00:00,
2013-06-06 00:10:00,38.0,28.0,29.74,SSW,193,0.0,0.0,67,0.00,,,0.00,Wunderground v.1.15,2013-06-06 08:10:00,
2013-06-06 00:15:00,37.8,28.5,29.74,SSW,193,0.0,0.0,69,0.00,,,0.00,Wunderground v.1.15,2013-06-06 08:15:00,
2013-06-06 00:25:00,37.0,28.1,29.74,SSW,193,1.0,1.0,70,0.00,,,0.00,Wunderground v.1.15,2013-06-06 08:25:00,
2013-06-06 00:30:00,36.9,28.4,29.74,SSW,193,0.0,0.0,71,0.00,,,0.00,Wunderground v.1.15,2013-06-06 08:30:00,
2013-06-06 00:40:00,36.3,28.1,29.74,SSW,193,0.0,0.0,72,0.00,,,0.00,Wunderground v.1.15,2013-06-06 08:40:00,
2013-06-06 00:45:00,36.3,29.5,29.75,SSW,193,0.0,0.0,76,0.00,,,0.00,Wunderground v.1.15,2013-06-06 08:45:00,
2013-06-06 00:55:00,35.6,28.5,29.75,SSW,193,0.0,0.0,75,0.00,,,0.00,Wunderground v.1.15,2013-06-06 08:55:00,
2013-06-06 01:05:00,34.9,28.4,29.75,SSW,193,0.0,0.0,77,0.00,,,0.00,Wunderground v.1.15,2013-06-06 09:05:00,
2013-06-06 01:15:00,34.1,28.0,29.75,SSW,193,0.0,1.0,78,0.00,,,0.00,Wunderground v.1.15,2013-06-06 09:15:00,
2013-06-06 01:25:00,34.0,28.2,29.75,SSW,193,0.0,0.0,79,0.00,,,0.00,Wunderground v.1.15,2013-06-06 09:25:00,
2013-06-06 01:35:00,33.5,27.7,29.75,SSW,193,0.0,0.0,79,0.00,,,0.00,Wunderground v.1.15,2013-06-06 09:35:00,
2013-06-06 01:45:00,32.9,28.0,29.76,SSW,193,0.0,0.0,82,0.00,,,0.00,Wunderground v.1.15,2013-06-06 09:45:00,
2013-06-06 01:50:00,32.1,26.9,29.76,SSW,193,0.0,0.0,81,0.00,,,0.00,Wunderground v.1.15,2013-06-06 09:50:00,
2013-06-06 02:00:00,30.9,26.1,29.76,SSW,193,0.0,0.0,82,0.00,,,0.00,Wunderground v.1.15,2013-06-06 10:00:00,
2013-06-06 02:10:00,30.6,26.3,29.76,SSW,193,0.0,0.0,84,0.00,,,0.00,Wunderground v.1.15,2013-06-06 10:10:00,
2013-06-06 02:15:00,30.3,26.0,29.76,SSW,193,0.0,0.0,84,0.00,,,0.00,Wunderground v.1.15,2013-06-06 10:15:00,
2013-06-06 02:25:00,29.8,26.1,29.76,SSW,193,0.0,0.0,86,0.00,,,0.00,Wunderground v.1.15,2013-06-06 10:25:00,
2013-06-06 02:35:00,29.8,26.1,29.76,SSW,193,0.0,0.0,86,0.00,,,0.00,Wunderground v.1.15,2013-06-06 10:35:00,
2013-06-06 02:45:00,29.8,26.4,29.77,SSW,193,0.0,1.0,87,0.00,,,0.00,Wunderground v.1.15,2013-06-06 10:45:00,
2013-06-06 02:55:00,30.0,26.6,29.77,SSW,193,0.0,1.0,87,0.00,,,0.00,Wunderground v.1.15,2013-06-06 10:55:00,
2013-06-06 03:05:00,29.5,26.1,29.77,SSW,193,0.0,0.0,87,0.00,,,0.00,Wunderground v.1.15,2013-06-06 11:05:00,
2013-06-06 03:15:00,29.1,26.0,29.77,SSW,193,0.0,0.0,88,0.00,,,0.00,Wunderground v.1.15,2013-06-06 11:15:00,
2013-06-06 03:20:00,28.8,25.4,29.77,SSW,193,0.0,0.0,87,0.00,,,0.00,Wunderground v.1.15,2013-06-06 11:20:00,
2013-06-06 03:30:00,28.5,25.4,29.77,SSW,193,0.0,0.0,88,0.00,,,0.00,Wunderground v.1.15,2013-06-06 11:30:00,
2013-06-06 03:40:00,28.8,26.2,29.77,SSW,193,0.0,0.0,90,0.00,,,0.00,Wunderground v.1.15,2013-06-06 11:40:00,
2013-06-06 03:45:00,29.0,26.4,29.77,SSW,193,0.0,0.0,90,0.00,,,0.00,Wunderground v.1.15,2013-06-06 11:45:00,
2013-06-06 03:55:00,28.4,25.8,29.77,SSW,193,0.0,0.0,90,0.00,,,0.00,Wunderground v.1.15,2013-06-06 11:55:00,
2013-06-06 04:00:00,28.2,25.4,29.77,SSW,193,0.0,0.0,89,0.00,,,0.00,Wunderground v.1.15,2013-06-06 12:00:00,
2013-06-06 04:10:00,27.9,24.8,29.77,SSW,193,0.0,0.0,88,0.00,,,0.00,Wunderground v.1.15,2013-06-06 12:10:00,
2013-06-06 04:20:00,28.4,25.6,29.78,SSW,193,0.0,0.0,89,0.00,,,0.00,Wunderground v.1.15,2013-06-06 12:20:00,
2013-06-06 04:30:00,28.8,26.5,29.77,SSW,193,0.0,0.0,91,0.00,,,0.00,Wunderground v.1.15,2013-06-06 12:30:00,
2013-06-06 04:40:00,29.1,26.5,29.77,SSW,193,0.0,0.0,90,0.00,,,0.00,Wunderground v.1.15,2013-06-06 12:40:00,
2013-06-06 04:50:00,29.4,26.8,29.77,SSW,193,0.0,0.0,90,0.00,,,0.00,Wunderground v.1.15,2013-06-06 12:50:00,
2013-06-06 04:55:00,29.5,26.9,29.77,SSW,193,0.0,0.0,90,0.00,,,0.00,Wunderground v.1.15,2013-06-06 12:55:00,
2013-06-06 05:05:00,29.5,27.2,29.78,SSW,193,1.0,1.0,91,0.00,,,0.00,Wunderground v.1.15,2013-06-06 13:05:00,
2013-06-06 05:15:00,30.0,27.4,29.78,SSW,193,0.0,0.0,90,0.00,,,0.00,Wunderground v.1.15,2013-06-06 13:15:00,
2013-06-06 05:25:00,30.3,27.7,29.78,SSW,193,0.0,0.0,90,0.00,,,0.00,Wunderground v.1.15,2013-06-06 13:25:00,
2013-06-06 05:35:00,30.7,28.4,29.78,SSW,193,0.0,0.0,91,0.00,,,0.00,Wunderground v.1.15,2013-06-06 13:35:00,
2013-06-06 05:40:00,30.9,28.3,29.78,SSW,193,0.0,0.0,90,0.00,,,0.00,Wunderground v.1.15,2013-06-06 13:40:00,
2013-06-06 05:50:00,31.0,28.4,29.78,SSW,193,0.0,0.0,90,0.00,,,0.00,Wunderground v.1.15,2013-06-06 13:50:00,
2013-06-06 06:00:00,31.2,28.6,29.79,SSW,193,0.0,0.0,90,0.00,,,0.00,Wunderground v.1.15,2013-06-06 14:00:00,
2013-06-06 06:10:00,31.3,28.7,29.79,SSW,193,0.0,0.0,90,0.00,,,0.00,Wunderground v.1.15,2013-06-06 14:10:00,
2013-06-06 06:20:00,31.6,29.0,29.79,SSW,193,0.0,0.0,90,0.00,,,0.00,Wunderground v.1.15,2013-06-06 14:20:00,
2013-06-06 06:25:00,31.6,29.0,29.79,SSW,193,0.0,0.0,90,0.00,,,0.00,Wunderground v.1.15,2013-06-06 14:25:00,
2013-06-06 06:35:00,31.9,29.3,29.79,SSW,193,0.0,0.0,90,0.00,,,0.00,Wunderground v.1.15,2013-06-06 14:35:00,
2013-06-06 06:45:00,32.1,29.5,29.79,SSW,193,0.0,0.0,90,0.00,,,0.00,Wunderground v.1.15,2013-06-06 14:45:00,
2013-06-06 06:50:00,32.1,29.5,29.79,SSW,193,0.0,0.0,90,0.00,,,0.00,Wunderground v.1.15,2013-06-06 14:50:00,
2013-06-06 07:00:00,32.4,29.8,29.80,SSW,193,1.0,3.0,90,0.00,,,0.00,Wunderground v.1.15,2013-06-06 15:00:00,
2013-06-06 07:05:00,32.5,29.6,29.80,SSW,193,1.0,3.0,89,0.00,,,0.00,Wunderground v.1.15,2013-06-06 15:05:00,
2013-06-06 07:15:00,32.9,30.0,29.80,SSW,193,0.0,0.0,89,0.00,,,0.00,Wunderground v.1.15,2013-06-06 15:15:00,
2013-06-06 07:25:00,33.2,30.3,29.80,SSW,193,0.0,0.0,89,0.00,,,0.00,Wunderground v.1.15,2013-06-06 15:25:00,
2013-06-06 07:35:00,33.8,31.2,29.80,SSW,193,0.0,0.0,90,0.00,,,0.00,Wunderground v.1.15,2013-06-06 15:35:00,
2013-06-06 07:45:00,34.1,32.0,29.80,SSW,193,1.0,1.0,92,0.00,,,0.00,Wunderground v.1.15,2013-06-06 15:45:00,
2013-06-06 07:55:00,34.1,32.0,29.80,SSW,193,2.0,2.0,92,0.00,,,0.00,Wunderground v.1.15,2013-06-06 15:55:00,
2013-06-06 08:05:00,34.4,32.3,29.80,SSW,193,1.0,1.0,92,0.00,,,0.00,Wunderground v.1.15,2013-06-06 16:05:00,
2013-06-06 08:15:00,34.9,32.8,29.80,SSW,193,0.0,0.0,92,0.00,,,0.00,Wunderground v.1.15,2013-06-06 16:15:00,
2013-06-06 08:25:00,35.0,32.9,29.80,SSW,193,0.0,0.0,92,0.00,,,0.00,Wunderground v.1.15,2013-06-06 16:25:00,
2013-06-06 08:35:00,35.3,33.5,29.79,SSW,193,0.0,0.0,93,0.00,,,0.00,Wunderground v.1.15,2013-06-06 16:35:00,
2013-06-06 08:45:00,35.2,33.6,29.80,SSW,193,0.0,1.0,94,0.00,,,0.00,Wunderground v.1.15,2013-06-06 16:45:00,
2013-06-06 08:55:00,35.3,34.0,29.80,SSW,193,0.0,0.0,95,0.00,,,0.00,Wunderground v.1.15,2013-06-06 16:55:00,
2013-06-06 09:00:00,35.3,34.0,29.80,SSW,193,0.0,0.0,95,0.00,,,0.00,Wunderground v.1.15,2013-06-06 17:00:00,
2013-06-06 09:10:00,35.5,34.2,29.80,SSW,193,2.0,5.0,95,0.00,,,0.00,Wunderground v.1.15,2013-06-06 17:10:00,
2013-06-06 09:20:00,35.5,33.9,29.80,SSW,193,3.0,3.0,94,0.00,,,0.00,Wunderground v.1.15,2013-06-06 17:20:00,
2013-06-06 09:30:00,35.5,33.9,29.80,South,187,4.0,6.0,94,0.00,,,0.00,Wunderground v.1.15,2013-06-06 17:30:00,
2013-06-06 09:35:00,35.6,34.0,29.80,South,187,3.0,6.0,94,0.00,,,0.00,Wunderground v.1.15,2013-06-06 17:35:00,
2013-06-06 09:45:00,35.8,34.2,29.80,South,187,1.0,2.0,94,0.00,,,0.00,Wunderground v.1.15,2013-06-06 17:45:00,
2013-06-06 09:55:00,35.8,34.2,29.80,South,191,2.0,2.0,94,0.00,,,0.00,Wunderground v.1.15,2013-06-06 17:55:00,
2013-06-06 10:05:00,36.2,33.8,29.80,South,191,2.0,3.0,91,0.00,,,0.00,Wunderground v.1.15,2013-06-06 18:05:00,
2013-06-06 10:15:00,36.3,34.2,29.81,SSW,197,2.0,7.0,92,0.00,,,0.00,Wunderground v.1.15,2013-06-06 18:15:00,
2013-06-06 10:25:00,36.8,34.4,29.81,SSW,197,2.0,2.0,91,0.00,,,0.00,Wunderground v.1.15,2013-06-06 18:25:00,
2013-06-06 10:35:00,37.2,33.7,29.81,SW,221,4.0,6.0,87,0.00,,,0.00,Wunderground v.1.15,2013-06-06 18:35:00,
2013-06-06 10:45:00,38.3,33.3,29.81,SSW,204,3.0,6.0,82,0.00,,,0.00,Wunderground v.1.15,2013-06-06 18:45:00,
2013-06-06 10:55:00,38.5,33.2,29.81,South,180,5.0,5.0,81,0.00,,,0.00,Wunderground v.1.15,2013-06-06 18:55:00,
2013-06-06 11:00:00,38.8,33.8,29.81,SSW,194,4.0,7.0,82,0.00,,,0.00,Wunderground v.1.15,2013-06-06 19:00:00,
2013-06-06 11:10:00,38.3,33.6,29.81,SSW,204,7.0,7.0,83,0.00,,,0.00,Wunderground v.1.15,2013-06-06 19:10:00,
2013-06-06 11:20:00,38.8,34.1,29.81,SW,232,7.0,7.0,83,0.00,,,0.00,Wunderground v.1.15,2013-06-06 19:20:00,
2013-06-06 11:25:00,38.9,33.6,29.81,SSW,203,6.0,11.0,81,0.00,,,0.00,Wunderground v.1.15,2013-06-06 19:25:00,
2013-06-06 11:35:00,37.8,34.3,29.82,SSW,198,7.0,8.0,87,0.00,,,0.00,Wunderground v.1.15,2013-06-06 19:35:00,
2013-06-06 11:40:00,37.8,34.3,29.82,WSW,238,6.0,8.0,87,0.00,,,0.00,Wunderground v.1.15,2013-06-06 19:40:00,
2013-06-06 11:45:00,37.8,34.3,29.82,SW,214,5.0,8.0,87,0.00,,,0.00,Wunderground v.1.15,2013-06-06 19:45:00,
2013-06-06 11:55:00,37.6,34.4,29.82,SW,236,4.0,5.0,88,0.00,,,0.00,Wunderground v.1.15,2013-06-06 19:55:00,
2013-06-06 12:05:00,37.6,34.7,29.82,WSW,246,5.0,6.0,89,0.00,,,0.00,Wunderground v.1.15,2013-06-06 20:05:00,
2013-06-06 12:15:00,37.3,34.4,29.82,WSW,253,6.0,6.0,89,0.00,,,0.00,Wunderground v.1.15,2013-06-06 20:15:00,
2013-06-06 12:25:00,37.3,34.1,29.82,SW,218,5.0,6.0,88,0.00,,,0.00,Wunderground v.1.15,2013-06-06 20:25:00,
2013-06-06 12:35:00,37.8,34.0,29.83,SSW,204,6.0,7.0,86,0.00,,,0.00,Wunderground v.1.15,2013-06-06 20:35:00,
2013-06-06 12:40:00,38.3,33.6,29.83,SW,218,6.0,6.0,83,0.00,,,0.00,Wunderground v.1.15,2013-06-06 20:40:00,
2013-06-06 12:50:00,38.0,33.3,29.83,SSW,207,7.0,7.0,83,0.00,,,0.00,Wunderground v.1.15,2013-06-06 20:50:00,
2013-06-06 13:00:00,38.5,33.2,29.83,SSW,210,5.0,6.0,81,0.00,,,0.00,Wunderground v.1.15,2013-06-06 21:00:00,
2013-06-06 13:10:00,40.6,34.0,29.83,WSW,258,5.0,6.0,77,0.00,,,0.00,Wunderground v.1.15,2013-06-06 21:10:00,
2013-06-06 13:20:00,41.1,33.8,29.83,WSW,238,4.0,5.0,75,0.00,,,0.00,Wunderground v.1.15,2013-06-06 21:20:00,
2013-06-06 13:30:00,40.6,33.6,29.83,SW,220,5.0,5.0,76,0.00,,,0.00,Wunderground v.1.15,2013-06-06 21:30:00,
2013-06-06 13:40:00,40.6,34.3,29.83,WSW,238,6.0,9.0,78,0.00,,,0.00,Wunderground v.1.15,2013-06-06 21:40:00,
2013-06-06 13:50:00,40.5,34.2,29.83,West,260,7.0,9.0,78,0.00,,,0.00,Wunderground v.1.15,2013-06-06 21:50:00,
2013-06-06 13:55:00,40.2,33.9,29.83,WSW,252,6.0,9.0,78,0.00,,,0.00,Wunderground v.1.15,2013-06-06 21:55:00,
2013-06-06 14:05:00,40.3,34.6,29.83,West,269,5.0,11.0,80,0.00,,,0.00,Wunderground v.1.15,2013-06-06 22:05:00,
2013-06-06 14:10:00,39.9,34.2,29.83,SSW,212,7.0,7.0,80,0.00,,,0.00,Wunderground v.1.15,2013-06-06 22:10:00,
2013-06-06 14:20:00,39.2,33.9,29.83,SW,221,9.0,10.0,81,0.00,,,0.00,Wunderground v.1.15,2013-06-06 22:20:00,
2013-06-06 14:25:00,39.2,33.5,29.83,SW,227,8.0,10.0,80,0.00,,,0.00,Wunderground v.1.15,2013-06-06 22:25:00,
2013-06-06 14:35:00,39.3,34.0,29.83,SW,218,6.0,8.0,81,0.00,,,0.00,Wunderground v.1.15,2013-06-06 22:35:00,
2013-06-06 14:45:00,39.5,34.2,29.83,SW,215,6.0,6.0,81,0.00,,,0.00,Wunderground v.1.15,2013-06-06 22:45:00,
2013-06-06 14:55:00,39.5,34.2,29.83,SSW,205,7.0,7.0,81,0.00,,,0.00,Wunderground v.1.15,2013-06-06 22:55:00,
2013-06-06 15:00:00,39.8,34.1,29.83,SSW,205,8.0,8.0,80,0.00,,,0.00,Wunderground v.1.15,2013-06-06 23:00:00,
2013-06-06 15:10:00,40.3,34.9,29.83,SSW,205,7.0,7.0,81,0.00,,,0.00,Wunderground v.1.15,2013-06-06 23:10:00,
2013-06-06 15:20:00,41.5,35.8,29.83,SSW,197,6.0,8.0,80,0.00,,,0.00,Wunderground v.1.15,2013-06-06 23:20:00,
2013-06-06 15:30:00,41.9,35.5,29.83,West,266,6.0,6.0,78,0.00,,,0.00,Wunderground v.1.15,2013-06-06 23:30:00,
2013-06-06 15:40:00,41.6,34.9,29.83,West,272,6.0,10.0,77,0.00,,,0.00,Wunderground v.1.15,2013-06-06 23:40:00,
2013-06-06 15:50:00,41.3,35.0,29.83,SW,224,6.0,8.0,78,0.00,,,0.00,Wunderground v.1.15,2013-06-06 23:50:00,
2013-06-06 16:00:00,42.3,35.3,29.83,WSW,241,5.0,5.0,76,0.00,,,0.00,Wunderground v.1.15,2013-06-07 00:00:00,
2013-06-06 16:10:00,41.2,35.2,29.83,SW,232,5.0,7.0,79,0.00,,,0.00,Wunderground v.1.15,2013-06-07 00:10:00,
2013-06-06 16:20:00,41.6,35.2,29.83,West,273,6.0,6.0,78,0.00,,,0.00,Wunderground v.1.15,2013-06-07 00:20:00,
2013-06-06 16:30:00,41.3,35.3,29.83,WSW,258,6.0,6.0,79,0.00,,,0.00,Wunderground v.1.15,2013-06-07 00:30:00,
2013-06-06 16:40:00,40.5,35.1,29.83,WSW,245,5.0,5.0,81,0.00,,,0.00,Wunderground v.1.15,2013-06-07 00:40:00,
2013-06-06 16:50:00,40.1,34.7,29.83,West,260,4.0,6.0,81,0.00,,,0.00,Wunderground v.1.15,2013-06-07 00:50:00,
2013-06-06 17:00:00,39.8,34.8,29.83,WNW,299,4.0,4.0,82,0.00,,,0.00,Wunderground v.1.15,2013-06-07 01:00:00,
2013-06-06 17:10:00,39.1,34.4,29.83,WNW,284,5.0,5.0,83,0.00,,,0.00,Wunderground v.1.15,2013-06-07 01:10:00,
2013-06-06 17:20:00,38.9,34.5,29.83,NW,311,4.0,4.0,84,0.00,,,0.00,Wunderground v.1.15,2013-06-07 01:20:00,
2013-06-06 17:30:00,37.6,33.5,29.83,NW,325,4.0,4.0,85,0.00,,,0.00,Wunderground v.1.15,2013-06-07 01:30:00,
2013-06-06 17:40:00,38.3,33.6,29.83,NNW,342,3.0,3.0,83,0.00,,,0.00,Wunderground v.1.15,2013-06-07 01:40:00,
2013-06-06 17:50:00,38.3,33.3,29.83,NW,325,3.0,3.0,82,0.00,,,0.00,Wunderground v.1.15,2013-06-07 01:50:00,
2013-06-06 17:55:00,38.9,33.9,29.83,NW,317,4.0,4.0,82,0.00,,,0.00,Wunderground v.1.15,2013-06-07 01:55:00,
2013-06-06 18:05:00,38.2,33.5,29.83,NNW,340,5.0,6.0,83,0.00,,,0.00,Wunderground v.1.15,2013-06-07 02:05:00,
2013-06-06 18:15:00,38.3,33.0,29.82,NNW,338,7.0,8.0,81,0.00,,,0.00,Wunderground v.1.15,2013-06-07 02:15:00,
2013-06-06 18:25:00,39.1,33.5,29.82,NNW,335,5.0,7.0,80,0.00,,,0.00,Wunderground v.1.15,2013-06-07 02:25:00,
2013-06-06 18:30:00,39.5,33.8,29.82,NE,43,5.0,5.0,80,0.00,,,0.00,Wunderground v.1.15,2013-06-07 02:30:00,
2013-06-06 18:40:00,39.6,33.6,29.82,NNW,345,5.0,6.0,79,0.00,,,0.00,Wunderground v.1.15,2013-06-07 02:40:00,
2013-06-06 18:50:00,39.3,34.0,29.82,North,354,9.0,9.0,81,0.00,,,0.00,Wunderground v.1.15,2013-06-07 02:50:00,
2013-06-06 19:00:00,38.6,33.0,29.82,NNW,338,9.0,9.0,80,0.00,,,0.00,Wunderground v.1.15,2013-06-07 03:00:00,
2013-06-06 19:10:00,38.5,32.9,29.82,NW,321,9.0,9.0,80,0.00,,,0.00,Wunderground v.1.15,2013-06-07 03:10:00,
2013-06-06 19:20:00,38.2,32.6,29.82,NW,320,9.0,9.0,80,0.00,,,0.00,Wunderground v.1.15,2013-06-07 03:20:00,
2013-06-06 19:30:00,37.5,32.5,29.82,NNW,340,10.0,13.0,82,0.00,,,0.00,Wunderground v.1.15,2013-06-07 03:30:00,
2013-06-06 19:40:00,37.3,32.6,29.82,NNW,331,9.0,9.0,83,0.00,,,0.00,Wunderground v.1.15,2013-06-07 03:40:00,
2013-06-06 19:45:00,36.8,32.4,29.82,North,349,10.0,13.0,84,0.00,,,0.00,Wunderground v.1.15,2013-06-07 03:45:00,
2013-06-06 19:50:00,36.8,32.1,29.82,NNW,347,12.0,16.0,83,0.00,,,0.00,Wunderground v.1.15,2013-06-07 03:50:00,
2013-06-06 20:00:00,37.2,32.5,29.82,NNW,335,11.0,11.0,83,0.00,,,0.00,Wunderground v.1.15,2013-06-07 04:00:00,
2013-06-06 20:05:00,37.3,32.3,29.82,North,351,10.0,13.0,82,0.00,,,0.00,Wunderground v.1.15,2013-06-07 04:05:00,
2013-06-06 20:10:00,37.5,32.5,29.82,NNW,344,9.0,12.0,82,0.00,,,0.00,Wunderground v.1.15,2013-06-07 04:10:00,
2013-06-06 20:20:00,37.8,32.5,29.82,NNW,348,9.0,12.0,81,0.00,,,0.00,Wunderground v.1.15,2013-06-07 04:20:00,
2013-06-06 20:25:00,37.9,32.6,29.82,North,358,10.0,12.0,81,0.00,,,0.00,Wunderground v.1.15,2013-06-07 04:25:00,
2013-06-06 20:30:00,37.8,32.5,29.81,North,349,10.0,10.0,81,0.00,,,0.00,Wunderground v.1.15,2013-06-07 04:30:00,
2013-06-06 20:35:00,37.9,32.3,29.81,North,2,10.0,10.0,80,0.00,,,0.00,Wunderground v.1.15,2013-06-07 04:35:00,
2013-06-06 20:40:00,37.8,32.5,29.81,NNW,327,10.0,10.0,81,0.00,,,0.00,Wunderground v.1.15,2013-06-07 04:40:00,
2013-06-06 20:50:00,37.3,32.3,29.81,NNW,344,10.0,12.0,82,0.00,,,0.00,Wunderground v.1.15,2013-06-07 04:50:00,
2013-06-06 21:00:00,37.0,32.3,29.81,North,1,11.0,12.0,83,0.00,,,0.00,Wunderground v.1.15,2013-06-07 05:00:00,
2013-06-06 21:05:00,37.3,32.6,29.81,NNW,345,10.0,12.0,83,0.00,,,0.00,Wunderground v.1.15,2013-06-07 05:05:00,
2013-06-06 21:15:00,37.5,32.5,29.81,NNW,348,9.0,10.0,82,0.00,,,0.00,Wunderground v.1.15,2013-06-07 05:15:00,
2013-06-06 21:20:00,37.3,32.3,29.81,NNW,327,9.0,9.0,82,0.00,,,0.00,Wunderground v.1.15,2013-06-07 05:20:00,
2013-06-06 21:25:00,37.2,32.5,29.81,NNW,347,10.0,10.0,83,0.00,,,0.00,Wunderground v.1.15,2013-06-07 05:25:00,
2013-06-06 21:35:00,36.8,32.4,29.81,NNW,344,9.0,11.0,84,0.00,,,0.00,Wunderground v.1.15,2013-06-07 05:35:00,
2013-06-06 21:44:00,36.2,32.1,29.81,NNW,342,9.0,10.0,85,0.00,,,0.00,Wunderground v.1.15,2013-06-07 05:44:00,
2013-06-06 21:54:00,35.9,31.8,29.81,NNW,344,10.0,10.0,85,0.00,,,0.00,Wunderground v.1.15,2013-06-07 05:54:00,
2013-06-06 21:59:00,35.9,31.8,29.81,NNW,335,9.0,11.0,85,0.00,,,0.00,Wunderground v.1.15,2013-06-07 05:59:00,
2013-06-06 22:05:00,35.0,31.2,29.81,NNW,335,11.0,12.0,86,0.00,,,0.00,Wunderground v.1.15,2013-06-07 06:05:00,
2013-06-06 22:15:00,34.7,31.5,29.82,NNW,332,12.0,12.0,88,0.00,,,0.00,Wunderground v.1.15,2013-06-07 06:15:00,
2013-06-06 22:25:00,34.3,31.1,29.82,NNW,342,10.0,11.0,88,0.00,,,0.00,Wunderground v.1.15,2013-06-07 06:25:00,
2013-06-06 22:35:00,34.0,31.6,29.82,NNW,344,10.0,11.0,91,0.00,,,0.00,Wunderground v.1.15,2013-06-07 06:35:00,
2013-06-06 22:45:00,34.0,31.4,29.82,North,352,9.0,10.0,90,0.00,,,0.00,Wunderground v.1.15,2013-06-07 06:45:00,
2013-06-06 22:50:00,33.8,31.2,29.82,NNW,327,9.0,9.0,90,0.00,,,0.00,Wunderground v.1.15,2013-06-07 06:50:00,
2013-06-06 23:00:00,33.2,30.6,29.82,NNW,340,10.0,13.0,90,0.00,,,0.00,Wunderground v.1.15,2013-06-07 07:00:00,
2013-06-06 23:05:00,33.1,30.5,29.82,North,354,11.0,13.0,90,0.00,,,0.00,Wunderground v.1.15,2013-06-07 07:05:00,
2013-06-06 23:15:00,32.8,30.5,29.82,North,5,10.0,11.0,91,0.00,,,0.00,Wunderground v.1.15,2013-06-07 07:15:00,
2013-06-06 23:21:00,32.8,30.7,29.82,North,358,9.0,10.0,92,0.00,,,0.00,Wunderground v.1.15,2013-06-07 07:21:00,
2013-06-06 23:31:00,32.1,30.3,29.82,North,352,11.0,13.0,93,0.00,,,0.00,Wunderground v.1.15,2013-06-07 07:31:00,
2013-06-06 23:40:00,31.8,30.3,29.82,NNW,341,10.0,11.0,94,0.00,,,0.00,Wunderground v.1.15,2013-06-07 07:40:00,
2013-06-06 23:50:00,31.6,31.6,29.83,NNW,348,9.0,9.0,100,0.00,,,0.00,Wunderground v.1.15,2013-06-07 07:50:00,